TimeBST,TemperatureF,Dew PointF,Humidity,Sea Level PressureIn,VisibilityMPH,Wind Direction,Wind SpeedMPH,Gust SpeedMPH,PrecipitationIn,Events,Conditions,WindDirDegrees,DateUTC
12:20 AM,53.6,44.6,72,29.98,6.2,SSW,13.8,-,N/A,,Mostly Cloudy,210,2011-10-28 23:20:00
12:50 AM,53.6,44.6,72,29.98,6.2,SSW,13.8,-,N/A,,Mostly Cloudy,210,2011-10-28 23:50:00
1:20 AM,53.6,46.4,77,29.98,6.2,SW,12.7,-,N/A,,Mostly Cloudy,220,2011-10-29 00:20:00
1:50 AM,51.8,46.4,82,29.98,6.2,SW,9.2,-,N/A,,Mostly Cloudy,220,2011-10-29 00:50:00
2:20 AM,53.6,46.4,77,29.98,6.2,SW,16.1,-,N/A,,Overcast,220,2011-10-29 01:20:00
2:50 AM,53.6,46.4,77,29.95,6.2,SW,13.8,-,N/A,,Overcast,220,2011-10-29 01:50:00
3:20 AM,53.6,46.4,77,29.95,6.2,SW,9.2,-,N/A,Rain,Light Rain,230,2011-10-29 02:20:00
3:50 AM,53.6,46.4,77,29.95,6.2,SW,13.8,-,N/A,Rain,Light Rain,220,2011-10-29 02:50:00
4:20 AM,53.6,46.4,77,29.92,6.2,SSW,12.7,-,N/A,,Mostly Cloudy,200,2011-10-29 03:20:00
4:50 AM,53.6,46.4,77,29.89,-9999.0,SSW,15.0,-,N/A,,Clear,200,2011-10-29 03:50:00
5:20 AM,51.8,48.2,88,29.89,5.6,SW,10.4,-,N/A,Rain,Light Rain,220,2011-10-29 04:20:00
5:50 AM,51.8,48.2,88,29.89,6.2,SSW,9.2,-,N/A,Rain,Light Rain,210,2011-10-29 04:50:00
6:20 AM,51.8,46.4,82,29.86,6.2,SSW,12.7,-,N/A,Rain,Light Rain,200,2011-10-29 05:20:00
6:50 AM,51.8,48.2,88,29.86,6.2,SSW,9.2,-,N/A,Rain,Light Rain,210,2011-10-29 05:50:00
7:20 AM,51.8,46.4,82,29.83,6.2,SW,8.1,-,N/A,,Scattered Clouds,220,2011-10-29 06:20:00
7:50 AM,51.8,46.4,82,29.83,6.2,Variable,9.2,-,N/A,,Scattered Clouds,0,2011-10-29 06:50:00
8:20 AM,51.8,46.4,82,29.83,6.2,SSW,12.7,-,N/A,,Mostly Cloudy,210,2011-10-29 07:20:00
8:50 AM,51.8,46.4,82,29.83,6.2,South,13.8,-,N/A,,Scattered Clouds,190,2011-10-29 07:50:00
9:20 AM,51.8,46.4,82,29.80,6.2,South,15.0,-,N/A,,Scattered Clouds,190,2011-10-29 08:20:00
9:50 AM,51.8,46.4,82,29.80,6.2,South,17.3,33.4,N/A,Rain,Light Rain,190,2011-10-29 08:50:00
10:20 AM,51.8,46.4,82,29.80,6.2,SW,11.5,-,N/A,,Scattered Clouds,230,2011-10-29 09:20:00
10:50 AM,51.8,46.4,82,29.77,6.2,SW,16.1,-,N/A,,Partly Cloudy,220,2011-10-29 09:50:00
11:20 AM,53.6,46.4,77,29.77,6.2,SSW,25.3,-,N/A,,Scattered Clouds,210,2011-10-29 10:20:00
11:50 AM,55.4,48.2,77,29.77,6.2,SW,21.9,-,N/A,,Scattered Clouds,220,2011-10-29 10:50:00
12:20 PM,57.2,48.2,72,29.77,6.2,SSW,23.0,34.5,N/A,,Scattered Clouds,200,2011-10-29 11:20:00
12:50 PM,57.2,48.2,72,29.74,6.2,South,18.4,-,N/A,,Scattered Clouds,190,2011-10-29 11:50:00
1:20 PM,57.2,48.2,72,29.74,6.2,South,18.4,-,N/A,,Partly Cloudy,190,2011-10-29 12:20:00
1:50 PM,57.2,48.2,72,29.71,6.2,South,18.4,-,N/A,,Scattered Clouds,190,2011-10-29 12:50:00
2:20 PM,57.2,48.2,72,29.71,6.2,South,20.7,-,N/A,,Partly Cloudy,190,2011-10-29 13:20:00
2:50 PM,57.2,50.0,77,29.68,6.2,South,17.3,-,N/A,,Scattered Clouds,190,2011-10-29 13:50:00
3:20 PM,57.2,50.0,77,29.65,6.2,SSW,20.7,33.4,N/A,,Scattered Clouds,200,2011-10-29 14:20:00
3:50 PM,57.2,50.0,77,29.65,6.2,SSW,20.7,32.2,N/A,,Scattered Clouds,200,2011-10-29 14:50:00
4:20 PM,57.2,50.0,77,29.62,6.2,SSW,19.6,-,N/A,,Scattered Clouds,200,2011-10-29 15:20:00
4:50 PM,57.2,51.8,82,29.62,6.2,SSW,21.9,33.4,N/A,,Scattered Clouds,210,2011-10-29 15:50:00
5:20 PM,55.4,51.8,88,29.65,4.3,SW,21.9,-,N/A,Rain,Light Rain,220,2011-10-29 16:20:00
5:50 PM,55.4,50.0,82,29.62,6.2,SW,16.1,-,N/A,,Scattered Clouds,220,2011-10-29 16:50:00
6:20 PM,55.4,51.8,88,29.62,6.2,WSW,13.8,-,N/A,,Partly Cloudy,240,2011-10-29 17:20:00
6:50 PM,53.6,50.0,88,29.65,6.2,SW,11.5,-,N/A,,Partly Cloudy,230,2011-10-29 17:50:00
7:20 PM,53.6,50.0,88,29.65,-9999.0,WSW,10.4,-,N/A,,Clear,240,2011-10-29 18:20:00
7:50 PM,53.6,50.0,88,29.68,6.2,SW,11.5,-,N/A,,Scattered Clouds,230,2011-10-29 18:50:00
8:20 PM,53.6,48.2,82,29.68,6.2,SSW,11.5,-,N/A,,Scattered Clouds,210,2011-10-29 19:20:00
8:50 PM,55.4,48.2,77,29.68,6.2,SSW,12.7,-,N/A,,Mostly Cloudy,210,2011-10-29 19:50:00
9:20 PM,53.6,48.2,82,29.68,6.2,SW,12.7,-,N/A,,Scattered Clouds,220,2011-10-29 20:20:00
9:50 PM,53.6,48.2,82,29.68,6.2,SW,15.0,-,N/A,,Mostly Cloudy,230,2011-10-29 20:50:00
10:20 PM,53.6,48.2,82,29.68,6.2,SW,12.7,-,N/A,,Mostly Cloudy,230,2011-10-29 21:20:00
10:50 PM,53.6,48.2,82,29.68,-9999.0,SW,16.1,-,N/A,,Clear,220,2011-10-29 21:50:00
11:20 PM,53.6,48.2,82,29.68,-9999.0,SW,16.1,-,N/A,,Clear,220,2011-10-29 22:20:00
11:50 PM,53.6,48.2,82,29.68,6.2,SW,16.1,-,N/A,,Scattered Clouds,220,2011-10-29 22:50:00